{"data":{"norad_id":62664,"intl_designator":"2025-009BH","name":"LYRA-1","alt_names":[],"object_type":"PAYLOAD","status":"ACTIVE","operator":null,"country":"AUS","launch_date":"2025-01-14","launch_site_code":"AFWTR","launch_vehicle":null,"mission":null,"orbit_class":"UNKNOWN","rcs_meters":null,"size_class":null,"mass_kg":null,"dimensions":null,"purposes":[],"wikipedia_slug":null,"has_3d_model":false,"image_url":null,"decayed_at":null,"tle_current":{"epoch":"2026-05-25T03:20:17.809728Z","epoch_age_seconds":73734,"freshness":"FRESH","line1":"1 62664U 25009BH  26145.13909502  .00007966  00000+0  39061-3 0  9996","line2":"2 62664  97.3985 220.2134 0007334 271.1193  88.9201 15.18363901 74929","mean_motion":15.18363901,"eccentricity":0.0007334,"inclination_deg":97.3985,"raan_deg":220.2134,"arg_perigee_deg":271.1193,"mean_anomaly_deg":88.9201,"bstar":0.00039061,"rev_number":7492,"period_min":94.838924914614,"perigee_km":505.73256840893,"apogee_km":515.83723905732,"semimajor_km":6888.9219037331,"source":"CELESTRAK","updated_at":"2026-05-25T13:38:03.162647Z"}}}